Location: Warner Observatory
(35.1353°N, 89.5455°W)
Time: 07:28:51
(UTC-06:00)

Envisat - Visible Passes

Search period start: 23 January 2020 00:00
Search period end: 02 February 2020 00:00
Orbit: 764 x 766 km, 98.1° (Epoch: 23 January)

Date Brightness Start Highest point End Pass type
(mag) Time Alt. Az. Time Alt. Az. Time Alt. Az.
23 Jan 3.3 06:30:58 10° NNE 06:36:03 74° ESE 06:41:07 10° S visible
23 Jan 3.0 17:42:08 10° SSE 17:47:09 69° ENE 17:52:13 10° N visible
23 Jan 6.4 19:25:19 10° WSW 19:26:35 11° W 19:27:52 10° WNW visible
24 Jan 5.1 05:54:43 10° NE 05:59:12 31° E 06:03:38 10° SSE visible
24 Jan 5.2 18:45:16 10° SSW 18:49:31 27° W 18:53:47 10° NW visible
25 Jan 6.3 05:19:56 10° ENE 05:22:08 13° E 05:24:19 10° ESE visible
25 Jan 3.5 18:07:36 10° S 18:12:37 65° W 18:17:40 10° NNW visible
26 Jan 3.8 06:19:45 10° NNE 06:24:45 57° E 06:29:44 10° S visible
26 Jan 6.1 19:12:27 10° SW 19:15:12 15° W 19:17:57 10° WNW visible
27 Jan 5.6 05:43:46 10° NE 05:47:50 24° E 05:51:52 10° SSE visible
27 Jan 4.8 18:33:34 10° SSW 18:38:10 35° W 18:42:47 10° NNW visible
28 Jan 3.1 17:56:15 10° S 18:01:19 84° WSW 18:06:26 10° NNW visible
29 Jan 4.4 06:08:36 10° NNE 06:13:26 43° E 06:18:15 10° S visible
29 Jan 5.8 19:00:16 10° SW 19:03:48 19° W 19:07:22 10° NW visible
30 Jan 6.0 05:32:58 10° NE 05:36:28 18° E 05:39:56 10° SE visible
30 Jan 4.3 18:22:00 10° S 18:26:50 45° W 18:31:42 10° NNW visible
31 Jan 3.0 17:45:00 10° SSE 17:50:03 76° ENE 17:55:08 10° N visible
01 Feb 4.9 05:57:31 10° NNE 06:02:06 34° E 06:06:40 10° SSE visible
01 Feb 5.4 18:48:21 10° SSW 18:52:26 24° W 18:56:33 10° NW visible
